GFSMA_con_mlcape_165.txt.gz
CAPE
891 763 556 591 735 734 642 522 581 239 85 0 1 0 0 1 1 0 25 25 61 54 45 34 25 8 11 8 13 11 1 11 9 6 4 4 3 4 5 4 3 4 2
587 444 482 524 615 665 600 558 589 133 24 0 0 0 1 5 0 4 19 32 41 47 49 38 26 11 11 12 13 6 10 8 9 9 6 6 5 2 2 2 4 6 5
472 456 231 386 628 385 399 686 398 202 12 0 0 0 0 2 0 8 34 29 26 37 56 42 25 16 8 21 19 10 4 6 4 5 3 8 7 8 4 4 3 4 4
613 266 222 273 419 341 439 386 322 191 34 2 0 0 1 1 3 3 82 46 33 13 40 57 45 34 24 24 14 15 9 7 5 2 5 2 3 7 7 6 5 4 1
251 160 270 141 233 209 387 315 278 121 55 4 0 0 0 0 1 31 81 56 39 45 43 34 53 49 40 27 9 10 12 11 9 6 4 5 2 1 10 7 6 4 3
108 84 114 235 276 169 228 197 136 46 18 0 0 0 0 8 27 40 43 54 56 47 48 46 42 43 51 33 16 7 12 7 5 4 3 4 6 7 8 9 6 2 1
101 95 69 92 171 131 123 214 113 16 2 0 0 0 0 6 15 42 48 68 46 38 53 39 59 45 37 35 27 21 10 6 1 1 2 1 2 4 8 6 3 5 1
86 91 78 98 142 126 124 149 63 5 2 1 0 1 1 5 23 42 62 80 72 47 54 45 21 39 32 33 18 3 1 1 0 0 0 0 0 0 3 7 7 7 2
94 86 109 99 123 137 97 85 91 7 1 2 0 0 0 0 36 45 76 86 57 37 33 26 26 29 29 17 0 0 0 0 0 0 0 0 0 0 0 3 7 7 2
46 73 60 68 68 65 90 57 58 27 13 2 3 0 0 0 0 0 39 57 60 52 37 26 17 9 22 15 0 0 0 0 0 0 0 0 0 0 0 4 6 5 2
49 63 17 56 63 121 118 95 81 37 12 4 2 0 0 0 0 0 0 32 38 46 19 24 24 12 3 4 0 0 0 0 0 0 0 0 0 0 0 5 4 2 1
1 1 52 78 59 63 66 65 99 78 17 3 2 0 0 0 0 15 0 3 9 41 22 40 27 7 0 0 0 0 0 0 0 0 0 0 0 0 0 0 0 0 0
1 0 33 58 21 28 44 70 72 92 25 9 1 0 0 0 0 0 38 17 13 23 21 4 0 0 0 0 0 0 0 0 0 0 0 0 0 0 0 0 0 0 0
45 44 42 45 41 52 37 80 52 44 25 9 1 1 0 0 1 2 0 10 16 2 0 0 0 0 0 0 0 0 0 0 0 0 0 0 0 0 0 0 0 0 0
0 11 67 106 56 84 121 112 56 3 40 11 2 1 2 0 0 1 4 19 40 2 0 3 0 0 0 0 0 0 0 0 0 0 0 0 0 0 0 0 0 0 0
1 1 5 42 55 107 194 163 92 17 8 5 1 2 0 0 0 0 4 16 18 26 19 3 0 0 0 0 0 0 0 0 0 0 0 0 0 0 0 0 0 0 0
0 0 1 3 62 104 127 182 101 36 29 12 1 3 0 0 0 0 0 0 0 0 0 0 0 0 0 0 0 0 0 0 0 0 0 0 0 0 0 0 0 0 0
0 0 0 2 8 11 93 79 44 16 1 0 0 1 2 1 0 0 0 0 0 0 0 0 0 0 0 0 0 0 0 0 0 1 0 0 0 0 0 0 0 0 0
2 2 2 0 0 0 12 21 11 0 1 1 1 1 2 1 0 0 0 0 0 0 0 0 0 0 1 0 0 0 0 0 0 0 0 0 0 0 0 0 0 0 0
1 1 1 1 0 0 0 0 0 1 2 2 1 1 1 1 0 0 0 0 0 0 0 0 0 2 2 2 0 0 0 0 0 0 0 0 0 0 0 0 0 0 0
3 1 1 1 1 1 1 1 2 1 1 0 0 0 0 1 0 0 0 0 0 0 0 1 1 1 0 0 0 0 0 0 0 0 0 0 0 0 0 0 0 0 1
2 2 1 1 1 3 3 1 1 1 1 1 1 0 1 3 2 2 1 0 0 0 0 0 0 0 0 0 0 0 0 0 0 0 0 0 0 0 0 1 0 0 0
1 1 2 2 3 4 4 4 1 1 0 0 0 0 1 1 0 0 0 0 0 0 0 0 0 0 0 0 0 0 0 0 0 0 0 0 0 0 0 0 0 1 5
2 2 2 2 3 4 7 6 0 0 0 0 0 0 0 0 0 0 0 0 0 0 0 0 0 0 0 0 0 0 0 0 0 0 0 0 0 0 1 2 7 3 5
0 2 1 1 3 3 3 0 0 0 0 0 0 0 0 0 0 0 0 0 0 0 0 0 0 0 0 0 0 0 0 0 0 0 0 0 0 0 0 0 5 0 0
0 0 0 0 1 1 0 0 0 0 0 0 0 0 0 0 0 0 0 0 0 0 0 0 0 0 0 0 0 0 0 0 0 0 1 0 2 2 1 0 0 0 0

GFSMA_con_mlcape_168.txt.gz
CAPE
360 367 278 295 431 407 547 455 334 208 80 46 0 3 0 0 0 0 0 11 47 46 43 26 12 8 10 11 3 9 8 8 7 8 8 8 7 5 5 6 7 3 1
346 420 379 314 375 405 381 367 362 133 87 0 0 0 0 0 0 0 0 14 21 31 43 39 12 11 5 7 1 8 6 4 5 5 5 5 5 6 8 5 4 4 3
489 307 186 86 317 230 249 443 264 148 66 0 0 0 0 0 0 0 5 8 14 30 22 41 34 31 25 5 5 13 10 10 7 4 4 5 5 5 7 7 7 6 7
335 281 84 28 210 243 241 293 399 116 1 0 0 0 0 0 0 5 15 3 2 5 14 30 48 41 28 13 7 4 9 11 12 2 3 5 4 5 4 3 3 5 4
405 104 105 110 91 167 222 283 242 46 7 0 0 0 0 1 7 52 24 33 18 0 5 28 27 49 26 21 7 6 6 9 8 7 3 3 3 7 8 6 2 1 1
151 42 43 94 74 82 120 191 131 69 10 0 0 0 0 4 14 27 22 38 51 18 5 5 11 30 45 29 24 5 12 14 10 8 7 8 2 8 12 7 4 3 1
44 43 21 45 66 38 76 92 82 53 8 0 0 0 0 0 2 11 1 19 29 23 26 4 28 40 47 47 23 16 10 8 5 4 5 4 5 8 8 1 3 6 1
32 33 18 11 16 37 57 15 31 0 0 0 1 5 0 1 8 15 1 16 39 59 59 42 39 31 34 32 23 8 1 1 0 0 0 1 1 2 4 2 1 7 5
1 58 31 4 8 55 37 7 6 2 17 2 0 1 1 0 2 0 9 25 38 54 32 45 55 49 36 17 7 0 0 0 0 0 0 0 0 0 0 3 3 4 1
43 30 35 1 3 28 37 2 2 5 16 1 2 0 0 0 0 0 0 0 35 50 25 18 80 55 40 10 0 0 0 0 0 0 0 0 0 0 0 2 2 1 0
27 13 0 1 4 19 42 33 9 7 2 0 3 0 0 0 0 0 0 3 19 29 30 0 13 17 22 0 0 0 0 0 0 0 0 0 0 0 0 0 0 0 0
2 0 0 1 7 19 33 34 40 25 16 4 2 1 0 0 0 0 0 0 9 17 5 2 12 15 1 0 0 0 0 0 0 0 0 0 0 0 0 0 0 0 0
1 0 0 64 22 9 1 14 40 33 28 27 2 0 0 0 0 0 0 0 0 17 32 31 22 1 0 0 0 0 0 0 0 0 0 0 0 0 0 0 0 0 0
0 0 1 39 9 0 7 18 32 48 37 12 2 0 0 0 0 0 0 5 11 48 16 24 24 4 0 0 0 0 0 0 0 0 0 0 0 0 0 0 0 0 0
0 2 15 14 29 41 49 32 24 30 31 3 1 0 0 0 0 0 0 11 2 0 3 1 5 3 0 0 0 0 0 0 0 0 0 0 0 0 0 0 0 0 0
0 0 2 1 27 63 81 110 54 48 58 34 8 1 1 0 0 0 3 7 17 12 1 2 0 0 0 0 0 0 0 0 0 0 0 0 0 0 0 0 0 0 0
0 0 0 1 20 42 88 163 143 67 41 28 8 0 0 0 0 0 1 3 0 0 0 0 0 0 0 0 0 0 0 0 0 0 0 0 0 0 0 0 0 0 0
0 0 0 1 2 24 81 121 108 80 55 18 1 0 0 1 1 0 0 0 0 0 0 0 0 0 0 0 0 0 0 0 0 1 0 0 0 0 0 0 0 0 0
0 0 0 0 3 9 10 82 35 34 16 1 0 1 2 1 1 0 0 0 0 0 0 0 0 0 0 0 0 0 0 0 0 0 0 0 0 0 0 0 0 0 0
1 1 1 1 1 1 3 0 0 0 0 0 0 1 1 0 1 0 0 0 0 0 0 0 1 2 3 2 1 0 0 0 0 0 0 0 0 0 0 0 0 2 0
1 1 1 0 0 1 1 0 1 1 1 1 1 0 0 1 1 0 0 0 0 0 0 0 0 0 0 0 0 0 0 0 0 0 0 0 0 0 0 0 0 1 5
1 1 1 1 1 3 2 1 1 1 1 0 0 0 0 3 3 3 4 1 0 0 0 0 0 0 0 0 0 0 0 0 0 0 0 0 0 0 0 0 2 0 2
1 2 2 1 2 3 4 4 0 1 0 1 0 1 1 0 0 0 0 0 0 0 0 0 0 0 0 0 0 0 0 0 0 0 0 0 0 0 0 0 1 2 8
1 2 2 2 2 5 5 2 0 0 0 0 0 0 0 0 0 0 0 0 0 0 0 0 0 0 0 0 0 0 0 0 0 0 0 0 0 0 0 0 13 9 11
1 2 2 2 3 3 3 0 0 0 0 0 0 0 0 0 0 0 0 0 0 0 0 0 0 0 0 0 0 0 0 0 0 0 0 0 0 0 0 0 6 1 7
1 0 1 1 1 0 0 0 0 0 0 0 0 0 0 0 0 0 0 0 0 0 0 0 0 0 0 0 0 0 0 0 0 0 0 0 2 3 0 0 0 0 0

GFSMA_con_mlcape_171.txt.gz
CAPE
264 245 177 241 300 358 432 317 292 107 26 38 0 4 9 0 0 0 0 6 24 7 44 34 10 9 5 8 4 4 1 1 5 3 4 5 5 5 6 5 1 0 1
383 302 195 178 203 258 260 441 311 139 43 0 0 0 1 0 0 0 1 7 10 20 30 32 36 26 25 6 2 4 1 4 6 9 2 4 4 5 2 3 4 3 3
220 141 142 94 212 235 270 349 321 104 16 0 0 0 1 0 0 0 10 14 33 17 18 27 48 38 31 10 5 1 1 4 1 4 8 7 4 6 9 4 11 8 7
366 169 27 0 85 132 100 161 191 79 0 0 0 0 0 0 3 11 14 8 12 23 21 35 40 48 46 29 14 4 3 1 1 1 2 4 5 5 8 8 7 4 7
318 101 40 23 33 97 149 171 84 14 0 0 0 0 3 5 33 40 20 14 5 5 21 13 48 47 45 28 14 4 9 8 5 6 6 5 4 3 3 4 5 4 2
216 34 23 45 22 69 79 111 61 3 0 0 0 0 1 6 23 27 30 24 18 0 15 16 25 9 41 49 20 5 8 9 5 5 4 5 4 8 6 1 1 1 1
57 16 29 44 21 31 58 62 11 0 1 0 0 0 0 4 15 30 19 30 10 4 0 0 25 27 25 33 44 21 8 12 5 3 3 3 4 5 3 7 2 0 0
3 3 0 16 29 16 0 10 13 0 1 2 1 0 4 6 2 3 7 8 11 7 11 16 26 28 16 35 39 18 2 4 4 3 3 1 1 3 5 2 6 1 0
0 4 5 3 0 0 2 2 4 6 3 1 0 1 0 5 9 7 10 9 5 9 15 14 17 36 5 10 15 0 0 0 0 0 0 0 0 1 2 2 2 2 1
9 7 20 0 2 9 12 4 2 1 1 12 8 0 0 0 5 5 1 1 9 16 27 34 21 25 11 1 9 1 0 0 0 0 0 0 0 0 1 2 2 1 0
17 21 10 0 1 6 8 9 0 0 1 13 5 0 0 0 0 0 0 1 0 8 35 30 7 19 14 11 1 0 0 0 0 0 0 0 0 0 1 1 0 0 0
4 1 2 0 0 13 7 8 4 0 1 0 3 1 0 0 0 0 0 0 0 0 27 4 0 3 6 7 0 0 0 0 0 0 0 0 0 1 0 0 0 0 0
0 0 0 0 1 5 2 9 16 12 1 6 11 0 0 0 0 0 0 0 5 9 18 0 0 1 24 25 9 0 0 0 0 0 0 0 0 0 0 0 0 0 0
0 0 1 12 65 1 0 0 1 13 9 4 10 0 0 0 0 0 0 0 0 1 0 0 8 23 3 0 0 0 0 0 0 0 0 0 0 0 0 0 0 0 0
1 0 2 4 13 2 0 0 0 9 4 9 5 0 0 0 0 0 0 0 0 0 2 3 16 10 6 0 0 0 0 0 0 0 0 0 0 0 0 0 0 0 0
0 1 2 5 31 38 72 26 11 6 1 7 5 1 1 0 0 0 0 1 0 0 6 0 0 0 0 0 0 0 0 0 0 0 0 0 0 0 0 0 0 0 0
0 0 0 1 3 9 76 121 66 68 52 37 22 7 0 1 0 0 0 0 0 1 0 0 0 0 0 0 0 0 0 0 0 0 0 0 0 0 0 0 0 0 0
0 0 0 0 1 12 48 85 82 41 48 36 16 0 0 0 1 1 0 0 0 0 0 0 0 0 0 0 0 0 0 0 0 3 0 0 0 0 0 0 0 0 0
0 0 0 0 0 8 24 79 53 58 27 2 1 0 0 2 1 0 0 0 0 0 0 0 0 0 0 0 0 0 0 0 0 0 0 0 0 0 0 0 0 0 0
1 0 0 1 2 12 7 4 1 0 0 0 0 0 1 1 0 0 0 0 0 0 0 0 0 2 1 1 1 0 0 0 0 0 0 0 0 0 0 7 0 4 0
0 0 0 0 0 0 0 0 0 1 1 0 0 0 0 1 2 0 0 0 0 0 0 0 0 0 0 0 0 0 0 0 0 0 0 0 0 0 0 0 0 5 13
1 1 1 1 2 2 4 2 1 1 1 0 0 0 0 3 4 4 2 0 0 0 0 0 0 0 0 0 0 0 0 0 0 0 0 0 0 0 0 0 5 9 8
1 1 1 2 2 3 5 3 0 0 0 0 0 0 0 0 0 0 0 0 0 0 0 0 0 0 0 0 0 0 0 0 0 0 0 0 0 0 0 2 12 10 16
1 1 1 1 3 5 3 1 0 0 0 0 0 0 0 0 0 0 0 0 0 0 0 0 0 0 0 0 0 0 0 0 0 0 0 0 0 0 0 0 10 7 7
1 2 2 2 3 3 2 0 0 0 0 0 0 0 0 0 0 0 0 0 0 0 0 0 0 0 0 0 0 0 0 0 0 0 0 0 0 0 0 0 0 0 0
1 1 1 1 2 0 0 0 0 0 0 0 0 0 0 0 0 0 0 0 0 0 0 0 0 0 0 0 0 0 0 0 0 0 0 0 0 3 0 0 0 0 0

GFSMA_con_mlcape_174.txt.gz
CAPE
454 454 457 352 405 366 326 207 121 56 8 5 0 18 1 0 0 0 21 16 16 23 27 39 30 29 34 25 15 18 17 10 10 6 8 9 10 4 5 1 3 13 16
395 334 286 278 329 349 360 300 205 83 0 0 0 14 13 0 0 2 56 20 18 30 12 50 46 39 34 33 16 12 10 12 7 7 7 5 4 4 4 4 3 5 1
442 319 262 278 285 297 257 317 221 51 0 0 0 10 6 0 0 31 37 21 22 16 26 29 37 47 39 33 24 20 10 3 7 7 2 2 1 6 9 6 11 8 4
311 103 208 199 231 184 153 209 169 44 0 0 0 8 9 0 12 25 35 27 18 14 25 34 63 43 44 33 16 11 12 4 1 1 3 4 8 10 11 9 8 7 6
368 172 37 37 106 89 92 96 59 0 0 0 0 4 3 0 24 34 32 33 17 22 32 17 14 37 31 23 14 5 6 5 4 9 5 5 3 8 8 10 6 4 3
279 123 53 44 52 67 68 57 30 0 0 0 0 2 1 7 14 26 43 38 24 20 36 12 4 22 81 29 19 12 3 5 10 9 9 2 4 6 6 8 7 4 2
199 47 24 33 29 48 47 29 1 0 0 0 1 0 4 12 34 31 23 32 31 9 17 19 1 6 8 62 26 23 11 3 8 7 7 6 5 4 1 7 5 4 1
34 41 0 0 0 0 4 9 0 4 1 1 3 3 28 18 5 0 10 34 13 9 4 33 15 18 22 36 41 19 0 7 9 6 4 4 4 3 5 2 4 4 1
0 13 3 5 0 0 0 0 5 9 14 1 1 22 16 20 6 1 6 18 30 7 2 17 30 6 20 35 23 11 7 0 0 0 0 1 2 3 3 4 3 1 0
3 0 8 7 0 0 0 3 3 9 14 13 0 0 0 1 0 6 1 9 12 0 2 8 4 15 12 29 21 3 1 0 0 0 0 0 0 2 2 1 2 0 0
1 5 7 12 0 2 14 10 7 6 10 5 0 6 0 0 0 3 3 1 2 2 5 4 17 20 17 6 6 1 0 0 0 0 0 0 0 2 3 1 0 0 0
9 26 23 9 0 0 5 12 7 3 3 2 0 0 0 0 0 0 0 1 0 1 2 0 4 10 4 8 0 4 0 0 0 0 0 0 0 5 0 0 0 0 0
0 7 2 0 0 3 11 12 14 7 1 2 0 0 1 0 0 0 0 0 0 3 2 0 2 2 10 3 8 21 6 0 0 0 0 0 0 0 0 0 0 0 0
0 0 0 0 5 9 1 1 3 9 0 1 3 2 0 0 0 0 0 0 1 0 0 1 0 0 1 7 10 20 12 0 0 0 0 0 0 0 0 0 0 0 0
0 0 0 0 21 3 0 0 0 3 11 12 0 0 0 0 0 0 0 0 0 0 0 0 0 0 0 0 8 5 0 0 0 0 0 0 0 0 0 0 0 0 0
9 6 5 4 29 5 2 0 0 2 4 0 0 0 0 0 0 0 0 0 0 0 0 0 0 0 0 0 0 0 0 0 0 0 0 0 0 0 0 0 0 0 0
0 0 0 3 12 40 66 63 35 25 14 0 7 5 1 0 0 0 0 0 0 0 0 0 0 0 0 0 0 0 0 0 0 0 0 0 0 0 0 0 0 0 0
0 0 0 0 1 2 48 94 95 30 39 23 29 15 8 0 0 1 1 0 0 0 0 0 0 0 0 0 0 0 0 0 0 4 3 2 0 1 0 0 0 0 0
0 0 0 0 0 2 25 80 63 19 19 17 13 12 4 0 1 0 0 0 0 0 0 0 0 2 2 1 0 0 0 0 0 0 0 1 0 0 0 7 0 0 2
0 0 0 0 0 17 5 2 0 0 0 0 0 0 0 0 0 0 0 0 0 0 0 0 1 2 1 1 0 0 0 0 0 0 0 0 2 4 4 9 1 2 9
0 0 0 0 4 2 3 0 0 0 0 1 0 0 0 1 2 1 0 0 0 0 0 0 0 0 0 0 0 0 0 0 0 0 0 0 0 0 0 1 0 0 12
1 1 1 1 0 0 3 1 0 0 0 1 0 0 2 4 4 4 3 1 0 0 0 0 0 0 0 0 0 0 0 0 0 0 0 0 0 0 0 0 1 11 3
1 1 2 2 2 3 6 2 0 0 0 1 0 0 0 0 0 0 0 0 0 0 0 0 0 0 0 0 0 0 0 0 0 0 0 0 0 0 0 0 4 20 20
1 1 1 2 2 4 5 2 0 0 0 0 0 0 0 0 0 0 0 0 0 0 0 0 0 0 0 0 0 0 0 0 0 0 0 0 0 0 0 0 18 8 4
1 1 2 2 3 3 1 0 0 0 0 0 0 0 0 0 0 0 0 0 0 0 0 0 0 0 0 0 0 0 0 0 0 0 0 0 0 0 0 0 0 0 0
2 1 2 1 1 2 0 0 0 0 0 0 0 0 0 0 0 0 0 0 0 0 0 0 0 0 0 0 0 0 0 0 0 0 0 0 0 0 0 0 0 0 0

GFSMA_con_mlcape_180.txt.gz
CAPE
415 425 460 428 463 448 330 105 76 18 0 0 0 0 0 0 0 28 18 2 0 2 6 24 19 36 33 28 24 26 32 30 21 6 5 16 10 5 4 3 7 10 16
194 324 373 394 355 338 248 173 84 42 18 0 0 0 1 9 4 38 66 18 18 19 22 30 24 28 37 29 28 33 27 31 24 19 16 3 9 6 7 8 8 5 3
423 329 291 289 191 196 187 201 107 23 0 0 0 0 4 3 7 49 66 53 42 45 61 39 34 36 31 35 30 24 24 26 32 26 18 17 16 4 7 4 7 8 9
454 320 312 313 281 289 230 216 80 0 0 0 0 0 0 0 0 30 54 80 77 49 30 30 60 33 34 28 25 23 25 22 22 25 21 18 18 14 4 10 9 8 6
431 263 229 201 213 178 141 130 31 0 0 0 0 0 2 1 0 34 22 49 70 42 51 27 26 37 53 30 17 7 13 18 11 18 21 19 19 18 3 6 12 14 11
330 169 103 127 140 84 47 33 34 0 0 0 0 3 6 7 11 16 27 24 42 49 32 24 22 36 44 40 24 7 2 3 10 8 8 14 17 13 7 4 5 5 7
245 100 33 34 51 61 35 0 0 0 0 0 0 0 17 31 48 19 23 12 18 33 34 18 34 21 58 47 54 17 15 4 1 3 8 9 2 3 10 7 3 4 2
284 166 119 58 25 14 0 0 0 0 0 0 0 12 33 35 17 32 40 33 13 19 21 29 29 21 42 40 42 35 20 7 0 0 0 2 5 8 6 4 7 5 5
186 109 90 37 0 0 0 0 0 0 6 0 11 37 43 26 42 28 36 38 18 22 10 29 13 14 5 9 0 7 12 0 0 0 0 0 2 4 3 5 6 4 3
65 36 3 0 0 0 1 8 0 0 0 5 21 11 0 12 18 20 24 22 15 29 33 24 16 6 2 2 0 7 11 0 0 0 0 0 0 3 2 1 0 1 4
20 0 4 0 5 9 5 7 0 1 26 20 25 12 0 3 0 18 18 13 10 28 34 11 1 4 0 2 3 1 8 1 0 0 0 0 0 0 0 1 0 0 2
17 11 0 1 16 9 0 0 4 21 18 23 15 11 2 3 2 3 8 2 9 6 16 0 0 0 0 2 8 2 15 3 0 0 0 0 0 5 0 0 0 1 0
0 2 0 8 2 5 0 1 21 15 15 12 9 8 1 1 0 0 0 1 0 1 2 0 0 1 1 3 3 8 4 5 2 0 0 0 0 28 1 0 0 0 0
0 0 0 4 4 4 2 12 13 13 19 11 10 7 9 3 2 0 0 0 1 1 1 1 1 1 0 2 2 9 0 8 1 0 0 0 6 9 0 0 0 0 0
8 8 3 1 1 0 10 4 0 0 1 7 0 5 8 2 0 0 0 0 0 0 1 0 0 0 0 0 1 0 0 0 6 0 0 0 17 0 0 0 0 0 0
0 1 2 0 0 11 3 0 0 2 1 0 2 1 0 0 0 0 0 0 0 0 0 1 1 1 1 1 2 0 1 0 2 14 6 0 0 0 0 0 0 0 0
0 1 0 0 11 10 4 0 0 0 1 2 0 3 0 0 0 0 0 1 1 0 0 1 2 1 1 0 0 1 1 0 3 4 5 3 2 2 1 0 0 0 0
2 7 10 11 27 17 7 4 5 0 2 2 2 4 15 5 5 0 1 0 0 0 0 0 2 1 1 1 1 0 0 1 0 5 5 2 2 1 1 1 0 0 0
0 0 0 0 11 25 37 54 47 58 17 1 0 31 11 3 1 0 0 0 0 0 0 0 1 2 1 1 1 1 1 0 0 1 1 3 1 1 2 1 2 0 2
0 0 0 0 0 4 9 24 33 10 0 0 0 1 0 0 0 0 0 0 0 0 0 0 0 2 2 0 0 1 0 0 0 0 0 0 0 0 0 0 1 0 6
0 0 0 0 1 4 5 2 0 0 0 1 1 0 0 1 2 1 0 0 0 0 0 0 0 0 0 0 0 0 0 0 0 0 0 0 0 0 0 0 0 0 3
0 0 0 3 2 2 11 1 0 0 0 0 0 0 0 3 5 4 4 1 0 0 0 0 0 0 0 0 0 0 0 0 0 0 0 0 0 0 0 0 0 0 1
0 0 0 1 1 3 4 4 1 0 0 0 0 0 0 0 0 0 0 0 0 0 0 0 0 0 0 0 0 0 0 0 0 0 0 0 0 0 0 0 15 26 17
1 1 1 2 1 4 6 2 0 0 0 0 0 0 0 0 0 0 0 0 0 0 0 0 0 0 0 0 0 0 0 0 0 0 0 0 0 0 0 0 7 4 1
1 1 2 1 1 1 0 0 0 0 0 0 0 0 0 0 0 0 0 0 0 0 1 0 0 0 0 0 0 0 0 0 0 0 0 0 0 0 0 0 0 0 0
2 1 1 1 2 2 0 0 0 0 0 0 0 0 0 0 0 0 0 0 0 0 0 0 0 0 0 0 0 0 0 0 0 0 0 1 0 0 0 0 0 0 0

GFSMA_con_mlcape_186.txt.gz
CAPE
758 937 954 925 1120 949 740 712 521 63 0 1 30 83 72 111 112 78 50 11 15 56 8 30 23 35 29 16 26 15 17 11 11 7 15 13 8 8 1 4 6 7 20
810 632 778 986 891 737 569 215 239 262 66 44 33 118 150 174 146 113 73 32 16 66 64 49 30 25 24 24 14 16 11 12 10 12 6 6 15 16 8 2 0 2 4
823 675 847 632 907 947 493 443 417 413 321 86 117 171 200 193 172 147 104 66 36 32 41 53 55 23 24 22 18 12 9 18 14 10 4 8 10 7 8 6 7 5 0
1024 727 429 241 842 958 676 643 569 512 323 252 174 184 174 162 162 119 153 114 130 101 13 40 76 24 21 25 19 17 9 5 3 10 12 2 5 12 9 9 9 8 8
1004 881 839 826 928 951 786 733 568 390 276 217 160 169 157 108 100 124 123 157 149 92 133 26 40 43 36 21 21 22 8 13 5 5 13 7 9 9 13 9 6 5 4
1301 1032 945 919 871 974 390 298 293 252 227 194 52 37 54 80 130 148 101 179 108 123 60 77 44 22 14 44 31 21 26 13 11 4 6 6 4 5 5 7 8 5 3
1181 988 744 736 605 624 212 177 96 140 62 52 33 0 0 24 96 93 127 140 162 137 91 78 83 91 43 16 25 21 15 13 13 9 15 6 6 4 2 6 5 6 5
1286 1006 821 704 638 586 324 84 109 24 11 49 36 51 35 60 82 127 125 65 70 136 81 93 45 26 64 31 28 12 15 24 19 14 8 5 11 7 7 7 7 5 7
1288 1020 910 809 791 542 329 268 204 95 36 20 43 45 34 13 65 54 54 61 121 113 116 136 20 26 10 14 9 14 12 1 11 14 13 9 6 8 3 3 7 5 4
1358 1118 906 813 738 327 294 326 173 89 72 9 10 16 18 37 23 28 30 66 104 120 71 27 21 32 32 9 0 2 11 0 1 11 19 24 11 5 7 4 5 6 2
1382 1134 954 836 682 428 201 109 63 68 62 44 33 31 31 29 0 48 39 46 72 37 67 54 22 54 13 1 0 1 9 5 0 0 0 12 32 16 8 9 6 5 3
1205 958 831 616 421 206 86 67 49 34 29 14 21 31 27 41 0 9 52 56 44 70 77 62 51 36 8 0 0 0 7 6 0 0 0 0 3 25 4 3 10 4 2
926 768 614 479 284 157 116 32 32 18 28 3 3 8 22 41 52 16 9 6 4 5 10 1 1 1 3 11 4 0 1 2 0 0 0 0 0 35 5 0 1 3 4
712 599 433 295 305 115 19 32 30 35 12 11 9 33 17 32 37 43 25 11 10 2 0 1 1 2 1 2 3 3 4 0 0 0 0 0 0 22 5 5 0 0 0
537 367 217 213 120 52 25 42 20 7 18 32 27 18 33 46 56 18 25 28 24 4 1 1 2 1 2 1 2 0 1 3 0 0 0 0 0 23 8 2 1 0 0
143 165 168 147 51 23 49 21 9 29 13 22 28 56 52 32 81 46 2 20 0 3 0 2 2 2 1 2 2 0 0 1 3 15 7 1 3 2 2 2 1 0 0
131 171 184 34 41 68 20 16 24 6 0 4 8 2 5 35 13 8 24 6 8 0 0 2 2 2 1 2 1 1 2 0 3 4 3 3 3 3 3 2 1 0 0
182 149 29 14 20 12 12 24 10 0 3 0 6 5 21 18 15 10 8 4 2 0 0 0 3 2 2 2 1 0 1 0 0 7 6 3 1 0 1 1 0 0 0
39 2 5 8 32 17 12 16 8 0 0 7 0 12 17 18 21 5 3 1 1 0 0 0 1 2 1 2 0 0 0 0 0 0 0 0 1 1 1 4 2 0 0
0 0 3 34 44 25 19 25 14 10 5 10 0 1 4 6 1 1 1 1 1 1 1 2 2 3 0 0 0 0 0 0 0 0 0 0 0 0 0 0 0 1 0
0 1 4 12 30 29 19 6 0 0 0 1 2 2 1 2 3 2 0 1 1 0 0 0 0 0 0 0 0 0 0 0 0 0 0 0 0 0 0 1 2 3 8
1 0 0 0 4 4 0 0 0 0 1 1 0 0 1 2 4 3 2 0 0 0 0 0 0 0 0 0 0 0 0 0 0 0 0 0 0 0 0 12 31 17 9
4 7 9 8 0 0 2 1 0 0 1 0 0 0 0 0 0 0 0 0 0 0 0 0 0 0 0 0 0 0 0 0 0 0 0 0 0 0 0 10 6 5 6
0 0 0 1 0 3 6 4 0 0 0 0 0 0 0 0 0 0 0 0 0 0 0 0 0 0 0 0 0 0 0 0 0 0 0 0 0 0 2 6 5 1 3
1 1 1 1 2 3 6 1 0 0 0 0 0 0 0 0 0 0 0 0 0 0 0 0 1 0 0 0 0 0 0 0 0 0 0 0 0 0 0 5 0 0 1
1 2 2 2 3 3 4 0 0 0 0 0 0 0 0 0 0 0 0 0 0 0 0 0 0 0 0 0 0 0 0 0 0 0 0 0 0 1 0 2 2 4 5

GFSMA_con_mlcape_192.txt.gz
CAPE
676 670 623 687 779 793 625 474 430 139 14 0 0 62 30 16 32 24 3 0 13 75 45 44 12 6 16 15 18 16 7 9 5 10 10 2 20 14 19 14 8 14 17
705 621 631 700 667 711 463 505 263 10 0 0 12 54 14 69 49 15 13 2 15 63 68 46 27 3 9 10 10 7 14 7 4 12 15 6 4 9 6 10 7 11 14
682 423 442 657 532 582 607 360 206 53 0 52 56 23 21 24 57 42 28 13 14 5 63 57 39 17 5 10 10 8 11 10 7 4 5 19 11 13 12 8 9 4 1
877 470 674 602 637 437 314 129 205 172 132 114 32 12 16 28 77 54 35 48 27 23 34 44 53 34 7 5 9 6 6 2 5 7 14 13 15 9 6 3 4 9 8
733 586 674 497 455 126 40 118 0 95 102 13 5 8 28 19 6 40 63 35 55 47 38 58 58 37 16 2 2 8 4 16 13 4 7 9 9 14 4 1 11 10 3
1067 878 809 431 332 267 30 274 229 161 7 0 0 0 0 0 0 23 11 54 57 59 55 35 44 49 51 1 4 8 4 13 13 16 7 10 13 8 3 7 4 1 8
856 1071 807 527 419 502 538 464 75 71 0 0 0 0 0 0 0 1 6 19 51 94 54 53 68 25 51 32 18 19 7 21 7 5 6 1 6 5 6 10 5 1 13
992 1035 771 847 673 412 381 267 76 22 0 0 0 3 6 9 7 1 11 36 37 51 54 115 61 80 32 11 3 6 10 7 7 5 8 6 3 5 11 7 4 2 5
1018 811 560 320 519 395 110 218 93 11 0 0 8 6 5 9 11 0 10 5 32 103 95 41 39 44 22 13 1 0 2 7 19 22 7 9 9 4 8 7 3 3 2
748 758 478 371 534 485 135 251 230 36 49 0 0 16 0 0 0 0 0 1 53 62 43 49 17 14 20 8 2 9 0 5 23 43 23 17 4 7 9 3 1 1 2
739 818 651 584 686 667 564 343 264 133 98 6 0 1 6 0 0 2 0 6 6 14 0 4 20 44 41 7 0 1 0 0 10 20 48 51 32 8 4 7 2 3 2
702 822 810 753 787 469 678 494 165 29 12 5 7 9 4 9 11 0 4 1 5 0 0 1 0 0 0 1 0 0 1 0 6 0 0 13 48 30 13 17 7 7 1
193 492 886 710 624 517 351 165 49 10 0 1 0 4 12 6 9 4 4 6 7 4 1 2 2 2 1 1 2 3 0 2 3 0 0 0 1 37 26 25 8 2 1
0 53 759 570 491 365 177 84 53 9 0 0 0 0 11 10 19 1 1 1 4 2 1 1 1 1 2 2 1 4 8 0 0 3 0 0 0 1 21 20 0 4 1
0 0 15 350 326 181 83 42 7 1 0 0 0 3 3 11 4 0 4 8 14 0 1 1 1 1 3 3 5 1 2 6 3 2 2 4 6 3 29 21 2 2 0
0 7 2 219 236 104 69 22 7 0 0 0 0 3 3 0 1 0 1 4 1 0 0 3 2 2 1 2 4 0 2 3 4 4 4 4 14 18 8 3 2 1 0
0 0 2 151 126 81 50 2 1 4 2 0 2 6 4 1 0 5 2 3 0 0 0 2 2 1 1 0 0 0 0 0 7 7 5 3 2 4 5 3 3 4 3
0 0 175 117 99 71 11 6 0 3 0 0 1 1 2 0 0 5 4 0 0 0 0 0 3 2 0 0 0 0 0 0 0 5 3 2 3 8 6 3 0 0 2
100 153 39 62 82 35 10 1 0 0 2 1 9 1 4 3 4 1 0 0 0 0 0 0 2 1 1 0 0 0 0 0 0 0 0 0 1 4 5 13 12 1 0
68 33 57 42 24 38 17 1 0 0 0 1 0 1 1 0 1 0 0 0 0 0 0 0 0 0 0 0 0 0 0 0 0 0 0 0 0 14 19 11 14 6 4
20 20 27 28 16 2 16 7 0 2 0 0 1 1 1 1 1 1 0 1 0 0 0 0 0 0 0 0 0 0 0 0 0 0 0 0 0 0 0 12 24 18 6
12 24 37 39 6 6 4 1 0 0 1 0 0 0 1 3 2 1 0 0 0 0 0 0 0 0 0 0 0 0 0 0 0 0 0 0 0 0 0 2 18 9 0
5 1 10 11 4 0 0 0 0 0 0 0 0 0 0 0 0 0 0 0 0 0 0 0 0 0 0 0 0 0 0 0 0 0 0 0 0 0 6 8 13 10 0
4 4 4 4 0 3 2 0 0 0 0 0 0 0 0 0 0 0 0 0 0 0 0 0 0 0 0 0 0 0 0 0 0 0 0 0 0 0 0 0 7 5 9
2 5 1 2 2 4 1 0 0 0 0 0 0 0 0 0 0 0 0 0 0 0 0 0 0 0 0 0 0 0 0 0 0 0 0 0 0 0 0 0 0 4 3
0 0 1 2 4 3 0 0 0 0 0 0 0 0 0 0 0 0 0 0 0 0 0 0 0 0 0 0 0 0 0 0 0 0 0 0 0 0 0 0 0 0 0

GFSMA_con_mlcape_195.txt.gz
CAPE
405 883 944 633 500 597 486 470 411 75 25 0 0 15 4 0 7 8 17 6 34 47 30 26 10 11 6 8 9 5 3 5 24 17 21 7 9 8 7 14 18 19 17
680 764 800 697 437 575 672 536 437 64 44 0 1 15 1 9 5 15 23 28 17 42 51 47 28 11 7 1 7 11 9 13 16 8 12 13 6 9 9 7 5 13 18
708 560 714 703 620 769 481 483 215 62 1 8 6 20 11 13 21 26 20 36 12 33 40 36 56 8 5 5 2 6 5 16 18 15 10 13 3 3 8 10 12 7 4
811 690 543 648 671 663 376 393 239 65 1 6 64 24 16 37 41 28 25 29 10 31 23 46 55 42 13 8 7 8 9 4 9 13 19 8 20 8 9 11 9 11 7
865 837 748 679 672 357 349 318 208 118 57 46 17 1 19 34 61 64 59 30 29 21 20 41 32 43 23 9 8 5 1 8 7 5 16 20 14 11 16 13 9 13 6
741 838 594 492 496 283 236 264 139 160 38 33 0 0 0 7 48 58 58 49 39 45 34 40 21 45 40 14 8 5 4 6 4 4 5 14 26 20 8 13 16 7 10
0 433 514 484 423 205 104 188 17 44 10 0 0 3 7 8 10 2 46 25 49 48 41 25 51 57 54 19 10 7 13 8 5 7 3 3 8 14 8 16 10 3 1
67 642 467 429 440 267 171 404 161 16 0 0 0 0 0 5 2 3 21 35 30 28 53 47 54 58 33 18 1 3 15 14 6 4 1 8 20 11 7 14 8 12 4
35 0 49 407 445 408 452 176 137 92 44 0 0 0 0 0 5 3 22 10 21 14 19 10 15 14 5 4 3 10 12 20 5 3 5 10 13 12 14 4 3 2 11
0 0 17 242 413 382 357 221 130 85 27 37 0 0 0 0 0 0 2 11 11 1 4 1 1 3 2 5 3 2 4 24 33 16 3 5 2 4 3 5 3 3 3
0 0 58 342 434 273 260 217 132 81 52 0 0 6 0 0 0 0 2 20 0 1 1 0 0 0 4 9 0 0 0 3 4 19 49 32 12 4 4 9 6 4 6
46 201 309 329 335 305 240 339 175 145 145 19 1 0 0 0 0 0 0 6 0 1 1 1 1 1 0 0 3 0 0 1 7 8 22 36 30 37 39 8 12 2 2
24 60 19 204 193 360 419 355 212 68 2 0 0 0 0 1 0 0 0 0 1 1 2 2 2 2 1 1 1 6 1 0 4 0 1 0 11 41 42 30 17 8 3
0 4 0 29 148 192 350 141 35 0 0 0 0 0 0 4 8 0 0 0 1 1 1 1 1 2 1 3 2 1 11 3 2 6 0 0 0 4 28 32 11 8 3
0 0 0 0 100 79 127 77 8 0 0 0 0 0 0 4 0 0 0 0 0 1 0 1 1 1 2 2 4 2 2 11 5 2 1 0 1 9 18 25 11 4 0
0 0 0 10 72 80 98 51 3 0 0 0 0 0 0 0 0 0 0 0 2 0 0 2 2 2 1 2 4 1 3 3 6 5 3 3 5 5 3 3 5 2 12
0 0 0 6 57 49 41 28 0 0 0 0 7 2 0 0 0 0 0 0 1 0 0 3 2 1 0 0 0 0 0 0 4 5 6 5 3 3 3 3 3 5 9
0 0 0 0 45 29 44 10 0 4 0 2 5 2 1 0 0 0 0 0 0 0 0 0 2 1 0 0 0 0 0 0 0 1 4 2 3 10 13 12 6 2 1
2 0 30 37 14 31 27 2 0 0 0 3 3 1 0 0 0 0 0 0 0 0 0 1 1 1 0 0 0 0 0 0 0 0 2 5 4 1 9 10 3 5 6
43 23 75 43 26 31 11 1 0 0 1 1 0 1 0 0 0 0 0 0 0 0 0 0 0 0 0 0 0 0 0 0 0 0 0 0 0 18 26 24 19 6 5
62 29 34 19 11 14 3 0 0 0 0 0 1 1 1 1 1 0 0 0 0 0 0 0 0 0 0 0 0 0 0 0 0 0 0 0 0 0 0 11 3 0 0
14 19 17 18 3 1 1 0 0 0 1 0 2 1 2 2 1 0 0 0 0 0 0 0 0 0 0 0 0 0 0 0 0 0 0 0 0 0 2 5 8 1 0
21 24 2 1 1 2 1 1 0 0 0 0 0 0 0 0 0 0 0 0 0 0 0 0 0 0 0 0 0 0 0 0 0 0 0 0 0 0 0 10 14 6 1
4 5 3 2 1 4 3 0 0 0 0 0 0 0 0 0 0 0 0 0 0 0 0 0 0 0 0 0 0 0 0 0 0 0 0 0 0 0 0 0 11 7 9
12 6 2 2 3 4 0 0 0 0 0 0 0 0 0 0 0 0 0 0 0 0 0 0 0 0 0 0 0 0 0 0 0 0 0 0 0 0 0 0 0 0 8
1 2 3 4 3 4 0 0 0 0 0 0 0 0 0 0 0 0 0 0 0 0 0 0 0 0 0 0 0 0 0 0 0 0 0 0 0 0 0 0 0 0 0

GFSMA_con_mlcape_198.txt.gz
CAPE
76 78 163 512 733 546 513 439 405 125 0 0 0 18 0 1 1 20 17 17 35 36 9 8 10 9 11 11 2 3 14 16 18 11 9 7 9 8 1 13 14 16 8
375 373 651 707 760 495 370 347 400 359 72 0 0 0 0 1 3 9 14 28 29 51 28 17 4 7 7 12 5 11 7 19 23 12 11 10 4 16 6 4 5 14 17
573 670 792 843 772 589 354 430 420 316 220 37 0 22 0 2 0 5 38 32 29 32 47 33 3 6 7 7 9 8 4 18 20 24 8 16 2 7 7 6 3 6 5
752 757 655 603 632 535 364 382 390 305 250 93 40 49 0 1 4 16 37 27 22 33 33 48 51 18 4 8 5 5 12 2 19 26 21 12 15 2 4 7 3 9 9
831 720 450 509 541 527 294 348 318 320 185 102 74 3 0 18 20 20 44 18 35 31 38 21 52 27 4 11 11 3 6 7 5 29 26 22 11 11 4 6 5 3 7
930 673 517 580 552 529 414 370 353 249 158 78 0 0 1 38 41 53 43 40 59 35 55 50 29 13 13 19 22 11 8 7 2 12 23 27 16 5 12 7 6 6 5
653 656 520 467 448 400 394 309 225 205 76 26 0 0 2 4 29 26 20 42 60 69 60 60 37 33 37 46 13 23 9 10 8 8 15 17 26 15 13 7 1 8 6
571 459 473 415 385 272 244 209 160 85 37 23 0 3 10 10 0 8 23 46 39 46 49 74 62 41 33 12 17 14 12 11 15 9 9 16 19 11 11 3 5 2 6
399 226 393 445 356 16 52 108 91 92 116 16 0 1 0 0 4 10 33 24 26 20 26 30 17 9 7 3 4 8 16 21 25 11 5 8 21 17 21 2 6 5 11
240 162 199 26 0 0 103 116 130 67 40 63 0 0 0 0 2 4 11 4 3 3 1 0 1 0 1 4 3 3 0 8 24 13 10 7 11 10 23 13 9 5 19
169 142 30 0 0 34 134 75 85 78 53 45 8 0 0 0 0 0 2 2 0 1 1 1 1 1 0 0 1 0 5 5 0 5 32 33 28 21 28 18 15 8 2
140 116 24 131 236 170 131 65 137 134 82 21 28 0 0 0 0 0 0 5 0 1 2 2 1 1 1 0 1 10 1 0 7 21 12 22 36 51 41 27 8 14 8
199 88 190 335 335 138 155 49 113 190 96 1 0 0 0 0 0 0 0 2 1 1 1 1 1 2 1 1 0 6 22 1 5 3 1 0 1 11 24 35 18 14 22
367 283 184 16 37 213 89 64 113 111 80 0 0 0 0 0 0 0 0 0 0 1 1 1 1 2 1 2 3 7 30 23 9 4 0 0 0 0 6 22 18 2 9
198 206 56 6 1 82 43 30 51 56 0 0 0 0 0 0 0 0 0 0 0 0 0 1 1 1 2 2 4 2 3 5 6 6 5 3 6 27 8 6 5 1 34
86 35 10 0 51 19 51 33 25 0 0 0 0 0 0 0 0 0 0 0 0 0 0 2 2 1 2 2 4 1 3 4 7 6 5 4 5 4 4 4 7 14 12
34 1 43 13 17 10 37 24 7 0 0 0 0 0 0 0 0 0 0 0 0 0 0 3 1 1 1 1 1 0 0 0 3 6 6 8 10 10 9 6 7 7 7
0 0 17 20 5 5 8 21 1 0 0 0 1 0 0 0 0 0 0 0 0 0 0 0 2 2 0 0 0 0 0 0 0 9 4 4 3 6 4 6 5 3 3
0 0 6 20 21 43 39 22 1 0 2 2 3 1 0 0 0 0 0 0 0 1 2 1 3 0 0 0 0 0 0 0 0 0 1 5 7 16 17 6 6 5 11
0 2 35 26 28 16 9 2 2 0 1 0 0 0 0 0 0 0 0 0 0 0 0 0 0 0 0 0 0 0 0 0 0 0 0 2 5 11 14 4 2 1 2
8 86 19 19 17 5 2 0 0 0 0 0 0 0 0 0 0 0 0 0 0 0 0 0 0 0 0 0 0 0 0 0 0 0 0 0 0 0 0 4 1 0 0
46 46 28 11 6 2 0 0 0 0 0 0 2 2 2 2 1 0 0 0 0 0 0 0 0 0 0 0 0 0 0 0 0 0 0 0 0 0 0 6 14 8 0
32 29 3 1 2 3 0 1 0 0 1 0 0 0 0 0 0 0 0 0 0 0 0 0 0 0 0 0 0 0 0 0 0 0 0 0 0 0 0 3 15 11 10
5 1 2 2 3 4 1 2 0 0 0 0 0 0 0 0 0 0 0 0 0 0 0 0 0 0 0 0 0 0 0 0 0 0 0 0 0 0 0 0 1 1 17
2 2 3 3 3 4 0 0 0 0 0 0 0 0 0 0 0 0 0 0 0 0 0 0 0 0 0 0 0 0 0 0 0 0 0 0 0 0 0 0 0 0 1
3 3 4 4 3 4 0 0 0 0 0 0 0 0 0 0 0 0 0 0 0 0 0 0 0 0 0 0 0 0 0 0 0 0 0 0 0 0 0 0 0 0 0

GFSMA_con_mlcape_201.txt.gz
CAPE
671 374 207 199 307 895 542 435 376 270 16 0 0 2 8 3 0 10 31 52 58 65 29 19 9 15 8 8 6 5 7 5 4 17 13 7 3 3 3 6 5 10 12
277 63 78 181 243 500 424 328 286 297 192 2 0 1 5 0 0 6 24 48 26 75 59 66 5 11 7 13 7 4 6 5 6 11 19 7 7 7 8 1 12 7 5
439 240 344 544 452 435 502 348 293 264 216 53 1 0 0 0 1 1 25 32 32 50 53 81 10 17 3 14 8 7 10 5 12 3 19 18 10 1 11 4 22 27 5
685 536 456 474 552 512 464 420 300 275 124 118 60 30 0 0 3 0 28 31 26 41 35 52 59 38 23 27 11 15 8 3 12 13 6 20 12 6 16 8 11 7 51
807 697 541 488 511 552 446 460 293 159 101 66 93 0 1 0 0 1 16 2 17 0 14 24 55 29 51 59 37 32 14 9 15 13 13 10 11 19 9 18 21 23 16
678 722 631 350 356 492 442 378 279 178 123 90 34 0 3 0 2 7 17 0 0 0 13 27 23 16 29 51 69 35 11 12 15 20 15 13 7 23 11 11 15 19 11
398 649 690 495 336 375 431 307 188 232 98 3 10 0 0 0 4 14 16 0 25 18 18 30 30 27 21 43 41 43 35 17 5 15 26 19 14 11 13 6 2 9 23
409 610 649 562 370 359 334 292 227 135 58 5 18 2 1 0 2 1 0 0 15 37 11 26 34 40 15 5 17 30 41 27 33 6 21 18 20 6 9 15 14 4 8
327 583 790 714 544 417 296 257 211 118 74 25 0 0 0 2 2 0 0 0 13 8 11 13 7 3 3 1 4 17 15 25 50 14 5 5 13 11 14 8 7 21 14
257 566 816 725 548 304 171 122 22 11 24 36 0 0 0 0 0 2 1 1 1 0 0 0 0 1 0 0 3 9 1 0 29 36 29 24 16 11 19 3 5 5 16
328 317 565 548 375 269 234 8 1 9 18 25 5 0 0 0 0 0 1 1 0 2 2 2 2 1 1 0 2 1 3 11 2 3 14 47 56 52 41 19 1 13 23
362 236 292 351 163 58 3 1 9 17 43 15 10 0 0 0 0 0 0 2 0 2 2 2 1 1 1 0 0 16 8 5 3 4 22 23 10 29 43 41 27 18 42
388 277 300 255 130 221 102 41 1 13 17 27 12 0 0 0 0 0 0 0 2 2 1 2 1 1 1 0 0 7 30 10 7 6 1 0 0 0 17 40 36 31 43
501 273 294 489 466 347 163 77 38 8 2 24 14 0 0 0 0 0 0 0 0 0 1 1 1 1 1 2 4 3 6 11 3 1 0 0 0 12 16 28 35 11 49
353 377 350 317 511 231 180 14 18 22 1 0 0 0 0 0 0 0 0 0 0 0 0 1 1 1 2 2 4 1 4 5 4 3 5 6 6 8 8 8 15 29 34
209 334 280 120 83 114 0 0 0 20 10 0 0 0 0 0 0 0 0 0 0 0 0 2 2 1 2 2 2 0 2 6 10 7 6 6 9 10 8 9 7 7 9
54 90 116 17 99 75 0 0 18 6 0 0 0 0 0 0 0 0 0 0 0 0 0 3 1 1 2 0 0 0 0 0 5 8 9 6 6 9 11 8 6 8 10
47 11 102 79 30 7 11 18 8 2 0 0 0 0 0 0 0 0 0 0 0 0 0 0 2 2 0 0 0 0 0 0 0 3 4 9 7 8 6 5 11 10 7
61 2 62 60 54 5 7 11 6 0 0 0 0 0 0 0 0 0 0 0 0 1 2 2 2 0 0 0 0 0 0 0 0 1 1 6 4 7 11 3 4 4 5
39 0 6 16 5 5 21 16 1 1 0 0 0 0 0 0 0 0 0 0 2 1 1 0 0 0 0 0 0 0 0 0 0 0 0 0 0 2 5 2 0 0 0
0 11 27 12 6 5 23 1 1 1 0 0 0 0 0 0 0 0 0 1 0 0 0 0 0 0 0 0 0 0 0 0 0 0 0 0 0 0 0 1 0 2 1
2 48 18 18 31 10 3 1 1 0 0 0 0 3 3 3 3 2 1 0 0 0 0 0 0 0 0 0 0 0 0 0 0 0 0 0 0 0 0 2 13 4 5
7 57 16 12 1 3 1 0 0 1 0 0 0 0 0 0 0 0 0 0 0 0 0 0 0 0 0 0 0 0 0 0 0 0 0 0 0 0 0 0 6 18 24
36 13 8 2 2 3 2 0 0 0 0 0 0 0 0 0 0 0 0 0 0 0 0 0 0 0 0 0 0 0 0 0 0 0 0 0 0 0 0 0 1 2 5
2 2 2 2 3 5 0 0 0 0 0 0 0 0 0 0 0 0 0 0 0 0 0 0 0 0 0 0 0 0 0 0 0 0 0 0 0 0 0 0 0 0 0
2 2 3 4 3 4 0 0 0 0 0 0 0 0 0 0 0 0 0 0 0 0 0 0 0 0 0 0 0 0 0 0 0 0 0 0 0 0 0 0 0 0 0

GFSMA_con_mlcape_204.txt.gz
CAPE
818 770 717 613 519 604 788 619 317 222 146 12 3 1 15 0 0 2 24 35 60 37 37 6 11 14 11 15 15 22 12 8 5 16 10 14 21 9 20 24 11 5 9
737 601 634 549 357 210 217 485 365 211 114 29 0 0 0 0 0 8 24 44 58 39 48 4 5 8 24 12 11 10 16 5 16 17 23 6 17 16 13 16 29 14 9
795 568 403 234 30 174 99 248 251 136 119 54 1 0 0 0 0 2 31 32 40 40 43 10 4 6 38 11 11 9 16 12 14 5 8 11 18 14 19 20 13 12 29
678 492 433 406 251 343 286 314 250 135 60 79 26 9 2 0 0 2 32 35 16 2 25 34 21 26 48 15 18 2 10 14 16 15 15 16 22 29 28 22 17 3 6
672 520 579 598 467 386 334 358 251 238 89 58 26 8 1 0 0 0 14 18 0 0 0 16 16 8 43 32 41 13 18 15 17 19 9 22 21 22 27 15 24 11 5
107 407 557 704 553 480 326 257 246 94 40 34 72 0 0 0 3 1 62 0 0 0 0 18 10 9 32 16 37 33 27 23 13 24 11 7 17 29 27 23 20 28 9
19 151 469 453 578 514 334 218 121 161 43 10 0 1 0 0 2 1 1 0 12 1 15 12 10 16 13 18 21 37 46 29 5 24 23 8 15 18 10 26 21 17 31
30 179 423 603 603 630 311 226 136 118 27 2 12 6 2 2 1 1 0 0 7 13 12 18 13 15 11 6 2 10 41 31 43 24 30 28 10 9 4 32 9 11 11
9 60 343 599 742 752 517 279 190 106 71 5 0 28 5 7 0 1 0 2 1 1 3 4 5 2 2 0 0 0 7 0 29 56 20 19 11 13 5 12 11 9 6
93 91 243 556 666 637 578 439 256 93 100 43 0 0 0 0 0 2 2 2 2 0 1 1 1 1 0 0 0 11 9 7 7 18 29 60 50 46 30 23 15 43 23
330 289 263 492 727 637 506 489 297 216 121 6 0 0 0 0 0 0 0 1 2 3 2 2 2 1 1 0 1 1 2 6 0 1 17 80 55 44 81 40 28 60 33
279 361 303 359 617 591 462 355 181 88 19 31 0 0 1 0 0 0 0 1 0 2 3 2 1 0 0 0 0 7 34 16 8 20 13 1 0 0 32 62 30 36 42
211 282 350 308 285 350 268 206 36 13 35 15 0 1 1 0 0 0 0 1 0 2 2 2 1 1 1 1 8 6 35 21 11 4 2 0 0 1 5 24 47 43 40
221 251 354 349 300 284 206 132 135 62 42 0 0 20 0 0 0 0 0 0 1 1 1 2 2 1 1 2 5 3 4 4 5 8 15 21 15 21 36 46 45 46 50
178 90 259 312 457 422 317 198 61 14 0 0 0 0 1 0 0 0 0 0 0 0 1 1 1 1 2 2 4 4 6 7 6 5 5 6 14 25 31 10 10 7 13
93 76 218 366 588 555 339 133 33 0 0 0 0 0 0 0 0 0 0 0 0 0 0 2 2 2 2 2 1 0 3 4 10 8 5 7 9 10 8 11 7 11 14
0 3 240 300 326 227 125 67 0 0 2 0 0 0 0 0 0 0 0 0 0 0 0 4 1 2 1 0 0 0 0 0 8 10 10 9 8 7 6 11 13 7 9
0 1 180 135 249 84 1 2 0 0 3 0 0 0 0 0 0 0 0 0 0 0 0 0 3 1 0 0 0 0 0 0 0 8 2 0 3 3 5 3 5 6 7
0 0 30 188 107 8 1 1 0 7 3 2 0 0 0 0 0 0 0 0 0 1 3 2 3 0 0 0 0 0 0 0 0 1 1 3 2 3 1 3 1 1 1
2 4 2 80 85 2 2 0 12 2 2 1 0 0 0 0 0 0 0 0 2 1 1 0 0 0 0 0 0 0 0 0 0 0 0 0 0 1 4 2 2 0 0
1 5 12 48 33 1 2 6 7 2 1 0 0 0 0 0 0 0 0 0 0 0 1 0 0 0 0 0 0 0 0 0 0 0 0 0 0 0 0 1 3 3 6
1 9 27 8 1 1 1 1 2 1 1 0 0 3 2 3 3 3 2 0 0 0 0 0 0 0 0 0 0 0 0 0 0 0 0 0 0 0 0 0 20 14 7
0 59 7 0 0 2 2 2 2 2 2 1 1 2 1 1 0 0 0 0 0 0 0 0 0 0 0 0 0 0 0 0 0 0 0 0 0 0 0 0 0 10 7
0 26 1 14 7 2 4 3 0 0 0 0 0 0 0 0 0 0 0 0 0 0 0 0 0 0 0 0 0 0 0 0 0 0 0 0 0 0 0 0 1 1 8
0 5 1 13 1 4 0 0 0 0 0 0 0 0 0 0 0 0 0 0 0 0 0 0 0 0 0 0 0 0 0 0 0 0 0 0 0 0 0 0 0 0 3
12 2 2 2 5 4 0 0 0 0 0 0 0 0 0 0 0 0 0 0 0 0 0 0 0 0 0 0 0 0 0 0 0 0 0 0 0 0 0 0 0 0 0

GFSMA_con_mlcape_207.txt.gz
CAPE
1002 1206 1261 1113 906 826 993 1153 1074 673 441 270 143 100 85 58 29 29 16 28 33 59 6 3 5 10 10 4 14 17 18 18 17 14 10 15 8 5 8 17 23 26 19
1074 1026 729 862 1071 1029 826 719 801 748 383 271 144 33 90 142 50 72 15 20 34 62 43 8 2 34 19 9 6 8 16 17 17 14 14 10 4 8 12 5 15 19 31
1027 982 810 810 967 1098 876 636 408 477 434 303 173 0 0 27 82 95 2 30 33 73 60 25 5 55 12 17 13 8 6 17 7 12 17 14 12 12 14 11 11 19 38
788 825 805 775 795 532 463 343 310 144 322 260 199 45 2 2 105 117 47 54 35 31 36 23 42 49 42 42 0 0 4 13 13 9 12 11 10 14 17 21 9 11 21
257 460 578 760 760 661 521 363 322 271 173 88 88 59 66 36 53 76 50 25 7 11 35 36 24 41 45 54 46 35 4 7 15 12 10 8 9 11 13 13 12 11 10
1 45 312 570 710 591 558 497 373 215 147 59 43 10 4 15 51 74 41 5 31 29 36 26 15 46 29 26 16 38 22 7 23 12 17 13 5 9 11 12 18 7 16
2 29 107 285 462 601 575 470 338 166 72 58 7 0 0 4 23 21 2 3 17 38 60 24 24 29 23 13 38 55 76 32 29 8 25 16 9 6 9 4 13 12 19
4 1 35 171 394 503 611 584 512 243 112 29 2 0 0 2 1 1 1 1 17 20 43 42 25 15 8 14 13 24 33 32 19 20 18 24 9 7 1 2 6 13 13
13 38 19 21 197 402 536 617 646 440 180 48 31 20 0 4 0 0 2 1 1 0 0 4 5 4 7 13 4 0 2 4 32 49 42 30 45 37 12 7 4 14 11
11 77 156 109 103 277 615 630 578 599 383 107 2 0 0 0 0 0 3 3 2 1 2 2 2 1 1 0 0 8 14 5 6 23 56 68 79 61 30 8 27 8 8
92 247 241 233 202 230 431 605 571 468 462 232 104 0 0 0 0 0 1 2 3 2 3 3 3 2 0 0 2 2 18 4 1 14 56 22 8 11 66 20 27 14 18
27 132 307 263 292 379 561 467 424 358 369 379 235 0 8 0 0 0 1 1 0 3 3 2 1 0 0 0 0 39 39 32 31 6 0 0 2 2 19 64 26 61 43
4 106 253 164 320 445 573 557 391 397 458 416 244 35 14 0 0 2 8 2 2 2 2 3 2 1 0 2 6 24 23 8 4 6 20 20 28 53 50 39 52 55 45
0 11 171 177 338 440 435 509 416 463 475 450 113 32 12 0 0 0 0 0 0 1 2 2 3 2 1 3 7 4 7 5 6 7 10 15 25 39 36 43 46 47 29
1 6 20 122 240 387 453 454 456 330 273 323 144 49 1 1 13 0 0 0 0 1 2 0 0 2 2 1 3 4 8 10 7 7 7 6 6 7 12 18 13 5 11
2 1 9 89 189 443 436 458 311 226 162 128 14 0 0 2 0 0 0 0 0 0 0 2 1 3 2 1 1 0 6 8 12 8 7 6 7 9 8 8 13 10 9
1 3 3 161 441 647 468 391 236 158 118 3 0 0 0 0 0 0 0 0 0 0 0 4 2 2 1 0 0 0 0 2 3 4 3 5 4 5 7 8 10 14 10
1 3 6 228 363 281 163 61 55 10 0 0 1 0 1 1 0 0 0 0 0 1 0 0 4 2 2 0 0 0 0 0 1 1 2 5 1 0 1 1 0 1 1
2 2 6 148 212 57 21 21 18 0 1 1 0 0 1 0 0 0 0 0 1 1 3 2 3 2 1 0 0 0 0 0 1 2 4 5 3 3 2 2 2 2 0
3 1 3 5 64 2 3 2 2 2 2 2 1 2 0 0 0 0 0 0 1 3 2 2 0 0 0 0 0 0 0 0 0 0 0 1 0 1 4 5 5 5 3
1 2 2 20 106 7 2 1 2 2 1 2 3 2 1 2 3 1 0 2 1 2 1 0 0 0 0 0 0 0 0 0 0 0 0 0 0 0 2 6 8 3 2
1 0 0 59 56 12 1 2 1 2 3 3 3 2 2 4 4 2 2 0 0 0 0 0 0 0 0 0 0 0 0 0 0 0 0 0 0 0 0 4 9 6 3
2 0 0 32 63 1 1 2 2 1 2 3 3 2 2 2 1 1 1 0 0 0 0 0 0 0 0 0 0 0 0 0 0 0 0 0 0 0 0 3 9 10 7
2 0 2 1 2 2 4 5 2 0 0 0 0 0 0 0 0 0 0 0 0 0 0 0 0 0 0 0 0 0 0 0 0 0 0 0 0 0 0 0 6 5 17
0 0 1 1 3 4 4 1 0 0 0 0 0 0 0 0 0 0 0 0 0 1 3 1 0 0 0 0 0 0 0 0 0 0 0 0 0 0 0 0 0 0 6
0 1 2 3 5 7 2 0 0 0 0 0 0 0 0 0 0 0 0 0 0 0 0 0 0 0 0 0 0 0 0 0 0 0 0 0 0 0 0 0 0 0 0